Tacoma, WA

7:51 AM PST on February 08, 2016 (GMT -0800)
McChord Air Force Base

Weather History for KTCM - September, 2013

Change the Weather History Date:

Thursday, September 26, 2013

  Actual Average (WUND) Record (WUND)
Temperature  
Mean Temperature 49 °F -  
Max Temperature 62 °F - - (-1)
Min Temperature 37 °F - - (-1)
Degree Days  
Heating Degree Days 16    
Moisture  
Dew Point 43 °F    
Average Humidity 94    
Maximum Humidity 100    
Minimum Humidity 54    
Precipitation  
Precipitation 0.00 in - - ()
Sea Level Pressure  
Sea Level Pressure 30.08 in    
Wind  
Wind Speed 2 mph (SE)    
Max Wind Speed 5 mph    
Max Gust Speed -    
Visibility 4 miles    
Events Fog    
Averages and records for this station are not official NWS values.
T = Trace of Precipitation, MM = Missing Value Source: NWS Daily Summary

Daily Weather History Graph

Daily Weather History Graph

Search for Another Location

Airport or City:

Trip Planner

Search our weather history database for the weather conditions in past years. The results will help you decide how hot, cold, wet, or windy it might be!

Date:

Astronomy

Sep. 26, 2013 Rise Set
Actual Time 7:02 AM PDT 6:58 PM PDT
Civil Twilight 6:32 AM PDT 7:29 PM PDT
Nautical Twilight 5:56 AM PDT 8:04 PM PDT
Astronomical Twilight 5:19 AM PDT 8:41 PM PDT
Moon 11:42 PM PDT (9/26) 2:18 PM PDT (9/26)
Length of Visible Light 12h 57m
Length of Day
11h 56m
Waning Gibbous, 53% of the Moon is Illuminated
Sep 26
Waning Gibbous
Sep 26
Last Quarter
Oct 4
New
Oct 11
First Quarter
Oct 18
Full

Hourly Weather History & Observations

Time (PDT) Temp. Windchill Dew Point Humidity Pressure Visibility Wind Dir Wind Speed Gust Speed Precip Events Conditions
12:48 AM 44.6 °F - 44.6 °F 100% 30.05 in 2.5 mi ESE 2.3 mph - N/A   Clear
12:53 AM 44.6 °F - 42.8 °F 93% 30.05 in 1.0 mi SE 1.2 mph - N/A   Clear
12:58 AM 44.1 °F - 43.9 °F 99% 30.06 in 0.8 mi SSE 1.2 mph - N/A   Clear
1:03 AM 44.6 °F - 44.6 °F 100% 30.05 in 0.5 mi SSE 2.3 mph - N/A Fog Fog
1:13 AM 44.6 °F - 44.6 °F 100% 30.05 in 0.5 mi SSE 2.3 mph - N/A Fog Fog
1:18 AM 44.6 °F - 44.6 °F 100% 30.05 in 0.5 mi SSE 2.3 mph - N/A Fog Fog
1:33 AM 42.8 °F - 42.8 °F 100% 30.04 in 0.5 mi Calm Calm - N/A Fog Fog
1:38 AM 42.8 °F - 42.8 °F 100% 30.04 in 0.5 mi ESE 2.3 mph - N/A Fog Fog
1:48 AM 42.8 °F - 42.8 °F 100% 30.04 in 0.5 mi ESE 1.2 mph - N/A Fog Fog
1:53 AM 42.8 °F - 41.0 °F 93% 30.04 in 0.5 mi SE 2.3 mph - N/A Fog Fog
1:58 AM 41.7 °F - 41.5 °F 99% 30.06 in 0.5 mi ESE 2.3 mph - N/A Fog Fog
2:03 AM 42.8 °F - 42.8 °F 100% 30.04 in 0.5 mi ESE 2.3 mph - N/A Fog Fog
2:08 AM 41.0 °F - 41.0 °F 100% 30.04 in 0.5 mi ESE 1.2 mph - N/A Fog Fog
2:18 AM 41.0 °F - 41.0 °F 100% 30.04 in 0.2 mi ESE 2.3 mph - N/A Fog Fog
2:23 AM 39.2 °F - 39.2 °F 100% 30.04 in 0.5 mi SE 2.3 mph - N/A Fog Fog
2:28 AM 41.0 °F - 41.0 °F 100% 30.04 in 0.5 mi Calm Calm - N/A Fog Fog
2:33 AM 41.0 °F - 41.0 °F 100% 30.04 in 0.5 mi SSE 2.3 mph - N/A Fog Fog
2:38 AM 41.0 °F - 41.0 °F 100% 30.04 in 0.2 mi Calm Calm - N/A Fog Fog
2:43 AM 41.0 °F - 41.0 °F 100% 30.04 in 0.2 mi South 1.2 mph - N/A Fog Fog
2:48 AM 41.0 °F - 41.0 °F 100% 30.04 in 0.2 mi Calm Calm - N/A Fog Fog
2:53 AM 41.0 °F - 41.0 °F 100% 30.04 in 0.8 mi South 2.3 mph - N/A   Clear
2:58 AM 41.2 °F - 40.8 °F 99% 30.06 in 0.8 mi SE 2.3 mph - N/A   Clear
3:08 AM 41.0 °F - 41.0 °F 100% 30.04 in 0.8 mi ESE 2.3 mph - N/A   Clear
3:13 AM 41.0 °F - 41.0 °F 100% 30.04 in 0.5 mi East 2.3 mph - N/A Fog Fog
3:18 AM 41.0 °F - 41.0 °F 100% 30.04 in 0.8 mi East 2.3 mph - N/A   Clear
3:28 AM 41.0 °F - 41.0 °F 100% 30.04 in 0.8 mi ESE 2.3 mph - N/A   Clear
3:33 AM 41.0 °F - 41.0 °F 100% 30.04 in 0.5 mi ESE 2.3 mph - N/A Fog Fog
3:38 AM 41.0 °F - 41.0 °F 100% 30.04 in 0.5 mi East 2.3 mph - N/A Fog Fog
3:48 AM 41.0 °F - 41.0 °F 100% 30.04 in 0.5 mi Calm Calm - N/A Fog Fog
3:53 AM 41.0 °F - 39.2 °F 93% 30.04 in 0.8 mi Calm Calm - N/A   Clear
3:58 AM 39.7 °F - 39.4 °F 99% 30.06 in 0.8 mi Calm Calm - N/A   Clear
4:03 AM 41.0 °F - 41.0 °F 100% 30.04 in 0.5 mi Calm Calm - N/A Fog Fog
4:08 AM 39.2 °F - 39.2 °F 100% 30.04 in 1.2 mi South 2.3 mph - N/A   Clear
4:13 AM 39.2 °F - 39.2 °F 100% 30.05 in 5.0 mi SSE 2.3 mph - N/A   Clear
4:18 AM 39.2 °F - 39.2 °F 100% 30.05 in 1.0 mi SSE 2.3 mph - N/A   Clear
4:23 AM 39.2 °F - 39.2 °F 100% 30.05 in 0.5 mi SSE 2.3 mph - N/A Fog Fog
4:28 AM 39.2 °F - 37.4 °F 93% 30.05 in 0.5 mi South 2.3 mph - N/A Fog Fog
4:38 AM 39.2 °F - 39.2 °F 100% 30.05 in 0.5 mi SSW 2.3 mph - N/A Fog Fog
4:43 AM 39.2 °F - 39.2 °F 100% 30.05 in 1.2 mi South 1.2 mph - N/A   Clear
4:48 AM 39.2 °F - 39.2 °F 100% 30.05 in 3.0 mi WNW 1.2 mph - N/A   Clear
4:58 AM 39.0 °F - 38.8 °F 99% 30.08 in 8.0 mi West 1.2 mph - N/A   Clear
5:08 AM 37.4 °F - 37.4 °F 100% 30.06 in 10.0 mi Calm Calm - N/A   Partly Cloudy
5:28 AM 39.2 °F - 37.4 °F 93% 30.07 in 3.0 mi ESE 1.2 mph - N/A   Mostly Cloudy
5:33 AM 39.2 °F - 39.2 °F 100% 30.07 in 0.5 mi ESE 1.2 mph - N/A Fog Fog
5:38 AM 39.2 °F - 39.2 °F 100% 30.07 in 0.2 mi East 1.2 mph - N/A Fog Fog
5:43 AM 41.0 °F - 41.0 °F 100% 30.07 in 0.2 mi Calm Calm - N/A Fog Fog
5:48 AM 41.0 °F - 41.0 °F 100% 30.07 in 0.2 mi Calm Calm - N/A Fog Fog
5:53 AM 41.0 °F - 41.0 °F 100% 30.07 in 0.5 mi ESE 2.3 mph - N/A Fog Fog
5:58 AM 41.7 °F 39.8 °F 41.4 °F 99% 30.09 in 0.5 mi SE 3.5 mph - N/A Fog Fog
6:03 AM 41.0 °F - 41.0 °F 100% 30.07 in 1.2 mi ESE 2.3 mph - N/A   Mostly Cloudy
6:08 AM 42.8 °F 41.1 °F 41.0 °F 93% 30.07 in 5.0 mi SE 3.5 mph - N/A   Mostly Cloudy
6:58 AM 43.3 °F - 43.2 °F 99% 30.10 in 10.0 mi East 1.2 mph - N/A   Overcast
7:23 AM 44.6 °F - 44.6 °F 100% 30.09 in 10.0 mi ESE 2.3 mph - N/A   Overcast
7:58 AM 44.6 °F - 44.4 °F 99% 30.11 in 10.0 mi ESE 2.3 mph - N/A   Overcast
8:43 AM 46.4 °F - 46.4 °F 100% 30.10 in 10.0 mi Calm Calm - N/A   Overcast
8:58 AM 46.6 °F - 46.2 °F 99% 30.12 in 10.0 mi Calm Calm - N/A   Overcast
9:10 AM 48.2 °F - 48.2 °F 100% 30.10 in 10.0 mi NNE 1.2 mph - N/A   Overcast
9:55 AM 50.0 °F - 50.0 °F 100% 30.11 in 10.0 mi Variable 1.2 mph - N/A   Overcast
9:58 AM 50.5 °F - 50.2 °F 99% 30.13 in 10.0 mi Variable 1.2 mph - N/A   Overcast
10:33 AM 51.8 °F - 51.8 °F 100% 30.12 in 10.0 mi WNW 4.6 mph - N/A   Overcast
10:58 AM 51.6 °F - 51.4 °F 99% 30.14 in 10.0 mi West 4.6 mph - N/A   Overcast
11:38 AM 51.8 °F - 51.8 °F 100% 30.12 in 10.0 mi Variable 4.6 mph - N/A   Overcast
11:58 AM 53.8 °F - 52.0 °F 94% 30.15 in 10.0 mi WNW 4.6 mph - N/A   Overcast
12:33 PM 55.4 °F - 48.2 °F 77% 30.12 in 10.0 mi Variable 2.3 mph - N/A   Scattered Clouds
12:38 PM 55.4 °F - 50.0 °F 82% 30.13 in 10.0 mi NW 4.6 mph - N/A   Mostly Cloudy
12:43 PM 55.4 °F - 50.0 °F 82% 30.13 in 10.0 mi Variable 1.2 mph - N/A   Scattered Clouds
12:58 PM 56.5 °F - 49.6 °F 78% 30.14 in 10.0 mi NNW 3.5 mph - N/A   Partly Cloudy
1:58 PM 60.6 °F - 49.3 °F 66% 30.14 in 10.0 mi SSE 4.6 mph - N/A   Partly Cloudy
2:38 PM 60.8 °F - 48.2 °F 63% 30.12 in 10.0 mi NNE 4.6 mph - N/A   Mostly Cloudy
2:43 PM 60.8 °F - 48.2 °F 63% 30.12 in 10.0 mi Variable 4.6 mph - N/A   Mostly Cloudy
2:58 PM 60.3 °F - 48.4 °F 65% 30.13 in 10.0 mi NNW 4.6 mph - N/A   Mostly Cloudy
3:58 PM 61.3 °F - 47.3 °F 60% 30.14 in 10.0 mi SW 4.6 mph - N/A   Partly Cloudy
4:58 PM 61.9 °F - 45.0 °F 54% 30.13 in 10.0 mi West 3.5 mph - N/A   Clear
5:58 PM 61.3 °F - 45.3 °F 56% 30.13 in 10.0 mi SW 3.5 mph - N/A   Clear
6:58 PM 59.0 °F - 46.4 °F 63% 30.14 in 10.0 mi WNW 3.5 mph - N/A   Clear
7:58 PM 50.5 °F - 46.9 °F 87% 30.15 in 10.0 mi SE 1.2 mph - N/A   Partly Cloudy
8:58 PM 46.8 °F - 45.1 °F 94% 30.15 in 10.0 mi ESE 3.5 mph - N/A   Clear
9:58 PM 48.2 °F - 46.8 °F 95% 30.16 in 10.0 mi SSE 2.3 mph - N/A   Overcast
10:58 PM 49.8 °F - 47.5 °F 92% 30.17 in 10.0 mi SW 4.6 mph - N/A   Partly Cloudy
11:58 PM 45.9 °F 44.6 °F 44.8 °F 96% 30.16 in 10.0 mi ESE 3.5 mph - N/A   Clear